Showing default

ICEYE-X55, 64581

Orbit data source: Space-Track

ICEYE-X55, 64581 is a payload satellite owned by ICEYE (FI) in SSO that was launched on Mon, 23 Jun 2025 UTC via an FALCON 9 launch vehicle from the Air Force Western Test Range (AFWTR). Payload-class satellites include a variety of spacecraft equipped with specific instruments for various scientific and technological missions. These include communications satellites like Starlink; space stations such as the ISS; scientific satellites like the Hubble; Earth observation satellites from companies like Planet Labs, Umbra, and HawkEye 360; GPS; miniature CubeSats for education and research; and military/defense satellites.

Loading next visibility...
Identifier
64581, 2025-135BF
Orbit
SSO
Country
Flag of FIFI / FIN
Related business
Manufacturer
ICEYE
Mission
Operational Commercial Radar Imaging
Bus & Motor
ICEYE, Unknown motor
Mass
80 kg wet, 80 kg dry
Launch date (UTC)
2025-06-23 (1 year ago)
Launch vehicle
FALCON 9
Launch site
Air Force Western Test Range (AFWTR)
Object type
Payload
Rocket body
Debris
Shape & HBR
Box + 1 Pan, 2.4 m
Radar Cross Section
0.776 m², Medium (>0.1 m² and < 1m²)

Expand to show TLE details & history
Last TLE update: 7 hours ago

TLE from 7 hours ago
0 ICEYE-X55
1 64581U 25135BF  26171.57837714  .00002283  00000-0  21290-3 0  9991
2 64581  97.7743 286.3507 0002607   0.3160 359.8061 14.95222190 54421
Epoch: 2026-06-20T13:52Z
TLE epoch observation values (Epoch: 2026-06-20T13:52:51.784Z)
Latitude
-0.00013°
Longitude
169.34396°
Altitude
582.914 km
Speed
7.57 km/s
True Right ascension
19h 05m 24s
True Declination
0° 00' 00"
Sunlit
Object was in full shadow at epoch
Visualization orbit readout
Latitude
Unknown
Longitude
Unknown
Altitude
Unknown
Speed
Unknown
Apparent Right ascension
Unknown
Apparent Declination
Unknown
Sunlit
N/A
Visualization observer readout
Local Sidereal Time
07:23:54
Azimuth
Unknown
Elevation
Unknown
Doppler factor
Unknown
Orbital elements
Apogee altitude
580.512 km
Perigee altitude
576.884 km
Semi-major axis
6,956.835 km
Eccentricity
0.00026
Inclination
97.7743°
RAAN
286.3507°
Arg. of periapsis
0.316°
True anomaly
359.806°
Mean anomaly
359.8061°
Eccentric anomaly
359.80605°
Mean motion
3.74047 °/min
Orbital period
96.24 mins
BSTAR
0.0002129
Loading maneuver chart data...
Computing Atmospheric mass density...
Loading historical data...
Loading historical data...
Loading historical data...
Loading historical data...
Loading historical data...
Loading historical data...
Loading historical data...

Documentation

Showing up to 5 results
|